Tracking 31027 objects as of 19-Jul-2025
HD Live streaming from Space Station
objects crossing your sky now

LEMUR 2 JK0903EM1407

Track LEMUR 2 JK0903EM1407 now!
10-day predictions
LEMUR 2 JK0903EM1407 is classified as:


NORAD ID: 58336
Int'l Code: 2023-174CJ
Perigee: 461.7 km
Apogee: 470.0 km
Inclination: 97.4 °
Period: 93.8 minutes
Semi major axis: 6836 km
RCS: Unknown
Launch date: November 11, 2023
Source: United States (US)
Launch site: AIR FORCE WESTERN TEST RANGE (AFWTR)

Uplink (MHz):
Downlink (MHz): 402.790/2022.500/2200.500/2440.000
Beacon (MHz):
Mode: GMSK
Call sign:
Status: Inactive

Your satellite tracking list
COSMOS 628
Track 1 satellite(s)




NASA's NSSDC Master Catalog

Two Line Element Set (TLE):
1 58336U 23174CJ  25199.46071238  .00007703  00000-0  22380-3 0  9994
2 58336  97.4146 279.5354 0006098 229.4351 130.6363 15.35745586 94264
Source of the keplerian elements: AFSPC